Location: ???????
(55.9569°N, 38.6553°E)
Time: 05:43:33
(UTC+00:00)

Cosmos 1709 Rocket - Pass Details

Date: 23 May 2024
Orbit: 948 x 1001 km, 82.9° (Epoch: 23 June)

Event Time Altitude Azimuth Distance (km) Brightness Sun altitude
Exits shadow 00:05:02 - 203° (SSW) 3,095 6.0 -6.0°
Reaches altitude 10° 00:05:59 10° 205° (SSW) 2,748 5.7 -5.9°
Maximum altitude 00:12:15 63° 286° (WNW) 1,107 4.3 -5.4°
Drops below altitude 10° 00:18:37 10° 8° (N) 2,786 7.4 -4.8°
Sets 00:21:12 0° 12° (NNE) 3,741 8.3 -4.6°
